Location: *
(40.7190°N, 4.2480°W)
Time: 17:54:54
(UTC+00:00)

Cosmos 407 Rocket - Pass Details

Date: 18 February 2020
Orbit: 745 x 785 km, 74.0° (Epoch: 01 April)

Event Time Altitude Azimuth Distance (km) Brightness Sun altitude
Rises 05:46:38 0° 207° (SSW) 3,260 6.5 -16.0°
Reaches altitude 10° 05:49:03 10° 211° (SSW) 2,333 5.7 -15.6°
Maximum altitude 05:54:18 62° 291° (WNW) 879 3.5 -14.6°
Drops below altitude 10° 05:59:33 10° 13° (NNE) 2,329 6.1 -13.6°
Sets 06:01:58 0° 16° (NNE) 3,254 6.9 -13.1°
